Torna al catalogo

CZ-6A DEB

AttivoSSO
NORAD 54995·DEBRIS·🇨🇳 China

Lanciato Nov 11, 2022 da Taiyuan Satellite Launch Center

Loading…

Prossimi Passaggi (prossime 24 ore)

TLE

AggiornatoSource: Space-Track

Epoca: Sep 14, 2026, 02:41 UTC

1 54995U 22151UL  26257.11217394  .00004826  00000-0  95873-3 0  9998
2 54995  98.6313 321.4106 0068599  30.1646 330.3476 14.61151245131010

Traccia CZ-6A DEB in tempo reale con AllMySat

Download on the App Store